PST,Max TemperatureF,Mean TemperatureF,Min TemperatureF,Max Dew PointF,MeanDew PointF,Min DewpointF,Max Humidity, Mean Humidity, Min Humidity, Max Sea Level PressureIn, Mean Sea Level PressureIn, Min Sea Level PressureIn, Max VisibilityMiles, Mean VisibilityMiles, Min VisibilityMiles, Max Wind SpeedMPH, Mean Wind SpeedMPH, Max Gust SpeedMPH,PrecipitationIn, CloudCover, Events, WindDirDegrees
2014-1-1,74,58,42,31,22,12,41,30,18,30.19,30.13,30.10,10,10,10,10,4,13,0.00,0,,318
2014-1-2,77,63,49,37,28,22,37,29,20,30.17,30.11,30.05,10,10,10,9,5,12,0.00,0,,343
2014-1-3,76,61,46,34,27,21,46,30,13,30.06,29.98,29.91,10,10,10,9,4,13,0.00,0,,343
2014-1-4,71,60,48,35,30,25,45,34,23,30.07,29.97,29.90,10,10,10,8,2,10,0.00,1,,17
2014-1-5,75,61,46,28,11,-2,42,24,5,30.25,30.18,30.08,10,10,10,10,4,13,0.00,0,,288
2014-1-6,73,61,48,25,9,1,32,19,6,30.33,30.24,30.18,10,10,10,10,5,12,0.00,0,,286
2014-1-7,67,55,42,30,15,4,36,22,8,30.18,30.12,30.06,10,10,10,12,2,13,0.00,1,,331
2014-1-8,72,58,43,22,16,9,40,25,9,30.13,30.06,30.00,10,10,10,12,3,13,0.00,1,,336
2014-1-9,71,57,43,35,24,18,50,32,14,30.07,30.03,29.95,10,10,7,10,3,16,0.00,0,,334
2014-1-10,74,60,45,34,28,23,56,36,16,30.15,30.09,30.04,10,10,8,10,4,13,0.00,0,,339
2014-1-11,74,60,46,32,29,25,58,38,17,30.19,30.10,30.01,10,10,10,10,4,12,0.00,1,,340
2014-1-12,77,63,49,33,24,10,52,31,10,30.27,30.10,29.97,10,10,10,17,6,21,0.00,2,,310
2014-1-13,78,65,52,18,12,6,22,14,6,30.40,30.33,30.29,10,10,10,14,5,16,0.00,0,,287
2014-1-14,83,68,52,16,8,-1,20,12,4,30.38,30.33,30.29,10,10,10,21,7,25,0.00,0,,294
2014-1-15,82,70,58,20,15,10,15,11,7,30.32,30.25,30.18,10,10,10,9,3,12,0.00,0,,250
2014-1-16,84,70,56,16,2,-11,17,10,2,30.21,30.15,30.11,10,10,10,17,7,22,0.00,0,,313
2014-1-17,84,71,58,22,6,-3,11,8,4,30.19,30.13,30.07,10,10,10,9,4,13,0.00,0,,290
2014-1-18,81,67,52,22,9,1,13,10,6,30.15,30.09,30.04,10,10,10,10,6,13,0.00,0,,358
2014-1-19,78,63,47,25,13,5,34,20,6,30.17,30.11,30.07,10,10,10,10,4,12,0.00,1,,343
2014-1-20,79,64,49,25,13,5,30,18,6,30.23,30.16,30.11,10,10,10,9,4,12,0.00,0,,7
2014-1-21,76,64,52,25,15,7,19,15,10,30.23,30.16,30.08,10,10,10,10,6,12,0.00,2,,328
2014-1-22,84,69,54,27,14,1,18,11,4,30.06,29.95,29.85,10,10,10,10,4,12,0.00,1,,333
2014-1-23,79,64,48,26,15,3,26,16,5,30.17,30.00,29.87,10,10,10,10,4,13,0.00,1,,310
2014-1-24,75,68,60,21,16,12,17,13,9,30.31,30.24,30.18,10,10,5,10,4,16,0.00,4,,266
2014-1-25,79,71,63,28,22,14,23,16,9,30.23,30.17,30.10,10,10,10,8,2,10,0.00,4,,323
2014-1-26,78,65,52,37,32,26,54,35,15,30.10,30.02,29.95,10,10,10,9,2,12,0.00,3,,288
2014-1-27,82,68,54,41,36,22,59,36,12,30.05,29.99,29.94,10,10,10,9,0,14,0.00,1,,274
2014-1-28,81,66,51,38,29,19,54,32,10,30.09,30.05,30.00,10,10,10,12,4,14,0.00,1,,358
2014-1-29,81,67,53,29,23,18,30,20,9,30.07,29.99,29.88,10,10,10,13,5,13,0.00,1,,7
2014-1-30,73,64,54,44,36,28,46,35,23,29.88,29.79,29.68,10,10,9,16,4,20,0.00,3,,112
2014-1-31,70,64,58,43,38,30,53,40,26,29.89,29.82,29.74,10,10,10,24,7,30,0.00,2,,341